Location: Nied?wied?
(53.3665°N, 14.8184°E)
Time: 22:32:47
(UTC+00:00)

Cosmos 1943 Rocket - Pass Details

Date: 03 March 2021
Orbit: 811 x 844 km, 71.0° (Epoch: 12 April)

Event Time Altitude Azimuth Distance (km) Brightness Sun altitude
Rises 17:13:05 0° 311° (NW) 3,411 6.1 -5.3°
Reaches altitude 10° 17:17:02 10° 338° (NNW) 2,478 4.9 -5.9°
Maximum altitude 17:19:43 13° 6° (N) 2,246 4.3 -6.3°
Drops below altitude 10° 17:22:24 10° 34° (NE) 2,477 4.3 -6.7°
Enters shadow 17:25:12 - 55° (NE) 3,096 4.6 -7.1°
